User: anonymous   Login
Location: Владивосток
(43.1151°N, 131.8856°E)
Time: 22:11:31
(UTC+10:00)
Language:

SO-50 - Orbit

View from above orbital plane
View from above orbital plane
View from above satellite
View from above satellite

Ground track
Ground track

The orbit data is extracted from the following two-line orbital elements,

1 27607U 02058C   24112.93805589  .00005072  00000-0  70258-3 0  9993
2 27607  64.5576  34.4033 0031506 139.7569 220.5876 14.78676376148007
Epoch (UTC): 21 April 2024 22:30:48
Eccentricity: 0.0031506
inclination: 64.5576°
perigee height: 611 km
apogee height: 655 km
right ascension of ascending node: 34.4033°
argument of perigee: 139.7569°
revolutions per day: 14.78676376
mean anomaly at epoch: 220.5876°
orbit number at epoch: 14800

The dashed part of the orbit path shows where the satellite is in the earth's shadow,  

DLR